GW4041 Weather Reports


time (UTC)temp
F
wind
direction
speed
knots
gust
knots
rain 1hr
in
rain 24hr
in
rain mn
in
humidity
%
barometer
mb
20260503192252 58 28 0.0 2.6 0.00 0.00 0.00 36 1011.4
20260503191749 58 2 2.6 7.0 0.00 0.00 0.00 35 1011.7
20260503191246 58 10 4.3 6.1 0.00 0.00 0.00 35 1011.4
20260503190742 58 329 4.3 7.0 0.00 0.00 0.00 35 1011.4
20260503190239 58 351 2.6 6.1 0.00 0.00 0.00 36 1011.2
20260503185731 59 351 4.3 7.0 0.00 0.00 0.00 35 1011.5
20260503185226 60 222 2.6 4.3 0.00 0.00 0.00 35 1011.6
20260503184721 58 328 1.7 5.2 0.00 0.00 0.00 38 1011.6
20260503184218 57 261 2.6 9.6 0.00 0.00 0.00 39 1011.5
20260503183714 57 234 1.7 4.3 0.00 0.00 0.00 39 1011.8
20260503183212 57 330 4.3 5.2 0.00 0.00 0.00 37 1011.9
20260503182710 57 225 5.2 7.8 0.00 0.00 0.00 37 1011.9
20260503182208 58 320 5.2 7.0 0.00 0.00 0.00 36 1011.8
20260503181704 56 24 1.7 2.6 0.00 0.00 0.00 38 1012.0
20260503181201 56 22 2.6 5.2 0.00 0.00 0.00 39 1012.2
20260503180658 56 337 6.1 7.8 0.00 0.00 0.00 38 1011.8
20260503180156 55 308 3.5 5.2 0.00 0.00 0.00 41 1012.2
20260503175653 54 235 0.9 6.1 0.00 0.00 0.00 42 1012.1
20260503175150 57 13 3.5 5.2 0.00 0.00 0.00 40 1012.0
20260503174646 55 260 1.7 2.6 0.00 0.00 0.00 44 1012.1
20260503174144 55 2 3.5 4.3 0.00 0.00 0.00 43 1012.1
20260503173639 55 303 1.7 4.3 0.00 0.00 0.00 40 1012.2
20260503173136 55 302 1.7 6.1 0.00 0.00 0.00 44 1012.4
20260503172632 53 347 2.6 5.2 0.00 0.00 0.00 44 1012.5
20260503172130 55 313 4.3 6.1 0.00 0.00 0.00 41 1012.5
20260503171626 54 237 1.7 5.2 0.00 0.00 0.00 44 1012.5
20260503171123 52 331 0.0 1.7 0.00 0.00 0.00 46 1012.5
20260503170620 52 9 1.7 4.3 0.00 0.00 0.00 46 1012.5
20260503170116 53 348 1.7 4.3 0.00 0.00 0.00 45 1012.4
20260503151012 51 69 1.7 5.2 0.00 0.00 0.00 51 1013.1
20260503150508 51 220 1.7 6.1 0.00 0.00 0.00 49 1013.1
20260503131350 50 358 2.6 2.6 0.00 0.00 0.00 54 1012.7
20260503130847 48 12 2.6 4.3 0.00 0.00 0.00 56 1012.9
20260503130345 48 357 4.3 6.1 0.00 0.00 0.00 56 1012.9
20260503110739 43 310 0.9 1.7 0.00 0.00 0.00 66 1012.6
20260503110236 43 340 0.9 2.6 0.00 0.00 0.00 66 1012.5
20260503100202 43 324 1.7 2.6 0.00 0.00 0.00 63 1011.6
20260503090121 43 331 0.9 0.9 0.00 0.00 0.00 66 1010.9
20260503081556 42 334 0.0 0.0 0.00 0.00 0.00 74 1010.8
20260503081053 42 331 0.0 0.9 0.00 0.00 0.00 70 1010.8
20260503080549 42 327 0.0 0.0 0.00 0.00 0.00 68 1010.7
20260503072523 44 304 0.0 0.0 0.00 0.00 0.00 66 1010.7
20260503072020 44 335 0.0 0.0 0.00 0.00 0.00 65 1010.7
20260503071512 45 335 0.0 0.9 0.00 0.00 0.00 64 1010.6
20260503071009 45 335 0.0 0.9 0.00 0.00 0.00 64 1010.6
20260503070505 45 344 0.0 0.9 0.00 0.00 0.00 62 1010.6
20260503054922 46 340 0.0 0.0 0.00 0.00 0.00 59 1011.0
20260503054419 47 324 0.9 0.9 0.00 0.00 0.00 60 1011.2
20260503053917 47 306 0.9 0.9 0.00 0.00 0.00 61 1011.2
20260503053414 47 318 0.9 0.9 0.00 0.00 0.00 60 1011.1
20260503052910 47 335 0.9 1.7 0.00 0.00 0.00 59 1011.0
20260503052408 46 338 0.0 1.7 0.00 0.00 0.00 62 1011.2
20260503051904 46 330 0.0 0.9 0.00 0.00 0.00 64 1011.1
20260503051400 46 324 0.0 0.9 0.00 0.00 0.00 62 1011.0
20260503050857 46 346 0.0 0.9 0.00 0.00 0.00 63 1011.2
20260503050353 46 340 0.0 0.9 0.00 0.00 0.00 64 1011.2
20260503045851 46 323 0.0 0.9 0.00 0.00 0.00 69 1011.2
20260503045348 46 313 0.0 0.0 0.00 0.00 0.00 71 1011.1
20260503044845 46 316 0.0 0.9 0.00 0.00 0.00 72 1011.4
20260503044342 46 325 0.0 0.0 0.00 0.00 0.00 72 1011.6
20260503043839 46 324 0.0 0.0 0.00 0.00 0.00 72 1011.5
20260503043336 46 324 0.0 0.0 0.00 0.00 0.00 68 1011.4
20260503042832 46 347 0.9 0.9 0.00 0.00 0.00 65 1011.3
20260503042329 46 349 0.9 0.9 0.00 0.00 0.00 68 1011.6
20260503041825 46 344 0.9 0.9 0.00 0.00 0.00 69 1011.5
20260503041322 46 306 0.9 0.9 0.00 0.00 0.00 70 1011.6
20260503040820 46 320 0.0 0.9 0.00 0.00 0.00 70 1011.7
20260503040317 46 316 0.0 0.9 0.00 0.00 0.00 68 1011.6
20260503035814 46 319 0.9 0.9 0.00 0.00 0.00 68 1011.4
20260503035312 46 321 0.9 0.9 0.00 0.00 0.00 70 1011.4
20260503034808 46 332 0.0 0.9 0.00 0.00 0.00 65 1011.6
20260503034305 46 327 0.9 0.9 0.00 0.00 0.00 63 1011.7
20260503033803 46 329 0.0 0.9 0.00 0.00 0.00 68 1011.6
20260503033300 47 333 0.9 1.7 0.00 0.00 0.00 71 1011.5
20260503032758 46 314 0.9 0.9 0.00 0.00 0.00 71 1011.5
20260503032257 46 329 0.9 0.9 0.00 0.00 0.00 65 1011.5
20260503031753 47 333 0.0 0.0 0.00 0.00 0.00 67 1011.5
20260503031252 46 345 0.9 1.7 0.00 0.00 0.00 66 1011.4
20260503030747 46 344 0.9 0.9 0.00 0.00 0.00 70 1011.5
20260503030244 46 346 0.0 0.0 0.00 0.00 0.00 71 1011.8
20260503025741 46 322 0.0 0.0 0.00 0.00 0.00 72 1011.6
20260503025238 46 317 0.0 0.0 0.00 0.00 0.00 69 1011.6
20260503024735 46 336 0.0 0.0 0.00 0.00 0.00 67 1011.7
20260503024232 46 332 0.0 0.0 0.00 0.00 0.00 69 1011.6
20260503023729 47 332 0.0 0.0 0.00 0.00 0.00 70 1011.5
20260503023226 47 333 0.0 0.0 0.00 0.00 0.00 69 1011.6
20260503022722 48 325 0.0 0.0 0.00 0.00 0.00 69 1011.8
20260503022217 48 321 0.0 0.0 0.00 0.00 0.00 70 1011.8
20260503021714 48 329 0.0 0.0 0.00 0.00 0.00 70 1011.7
20260503021210 48 320 0.0 0.0 0.00 0.00 0.00 66 1011.8
20260503020708 48 341 0.0 0.0 0.00 0.00 0.00 70 1011.6
20260503020205 48 324 0.0 0.0 0.00 0.00 0.00 70 1011.5
20260503015702 48 332 0.0 0.0 0.00 0.00 0.00 69 1011.8
20260503015159 48 344 0.0 0.0 0.00 0.00 0.00 71 1011.5
20260503014654 48 318 0.0 0.0 0.00 0.00 0.00 68 1011.6
20260503014153 48 350 0.0 0.0 0.00 0.00 0.00 69 1011.8
20260503013649 48 335 0.0 0.0 0.00 0.00 0.00 71 1011.4
20260503013147 49 333 0.0 0.0 0.00 0.00 0.00 70 1011.3
20260503012644 49 343 0.0 0.0 0.00 0.00 0.00 69 1011.4
20260503012141 49 335 0.0 0.0 0.00 0.00 0.00 70 1011.4
20260503011638 49 330 0.0 0.0 0.00 0.00 0.00 69 1011.3
20260503011135 49 340 0.0 0.0 0.00 0.00 0.00 69 1011.5
20260503010631 50 335 0.0 0.0 0.00 0.00 0.00 67 1011.3
20260503010128 50 335 0.0 0.0 0.00 0.00 0.00 65 1011.2
20260503005625 50 345 0.0 0.0 0.00 0.00 0.00 64 1011.1
20260503005123 50 320 0.0 0.0 0.00 0.00 0.00 63 1011.0
20260503004619 51 320 0.0 0.0 0.00 0.00 0.00 65 1011.1
20260503004118 51 320 0.0 0.0 0.00 0.00 0.00 64 1010.8
20260503003614 51 320 0.0 0.0 0.00 0.00 0.00 62 1010.8
20260503003111 51 320 0.0 0.0 0.00 0.00 0.00 60 1010.9
20260503002608 51 315 0.0 0.0 0.00 0.00 0.00 61 1010.8
20260503002104 52 306 0.0 0.0 0.00 0.00 0.00 59 1010.5
20260503001600 52 313 0.0 0.0 0.00 0.00 0.00 62 1010.7
20260503001058 52 314 0.0 0.0 0.00 0.00 0.00 61 1010.6
20260503000555 53 305 0.0 0.0 0.00 0.00 0.00 61 1010.7
20260503000052 53 305 0.0 0.0 0.00 0.00 0.00 57 1010.6
20260502235549 53 304 0.0 0.9 0.00 0.00 0.00 55 1010.6
20260502235047 53 318 0.0 0.9 0.00 0.00 0.00 55 1010.7
20260502234542 54 322 0.0 0.0 0.00 0.00 0.00 52 1010.4
20260502234041 54 323 0.0 0.9 0.00 0.00 0.00 49 1010.6
20260502233540 54 329 0.0 0.0 0.00 0.00 0.00 53 1010.4
20260502233038 54 309 0.0 0.9 0.00 0.00 0.00 47 1010.7
20260502232534 54 316 0.0 0.9 0.00 0.00 0.00 52 1010.5
20260502232031 55 308 0.0 0.0 0.00 0.00 0.00 51 1010.5
20260502231528 55 311 0.0 0.9 0.00 0.00 0.00 46 1010.5
20260502231026 55 340 0.0 0.9 0.00 0.00 0.00 49 1010.5
20260502230524 56 314 0.9 0.9 0.00 0.00 0.00 47 1010.3
20260502230023 56 336 0.9 0.9 0.00 0.00 0.00 44 1010.3
20260502225523 56 352 0.9 1.7 0.00 0.00 0.00 44 1010.5
20260502225020 56 348 1.7 1.7 0.00 0.00 0.00 45 1010.5
20260502224516 56 325 0.9 0.9 0.00 0.00 0.00 43 1010.3
20260502224014 56 354 0.9 2.6 0.00 0.00 0.00 43 1010.2
20260502223511 56 342 0.9 1.7 0.00 0.00 0.00 43 1010.1
20260502223009 56 16 0.9 0.9 0.00 0.00 0.00 46 1010.0
20260502222506 56 336 0.9 2.6 0.00 0.00 0.00 44 1010.1
20260502222002 56 345 0.9 1.7 0.00 0.00 0.00 44 1010.1
20260502221458 57 321 0.0 1.7 0.00 0.00 0.00 45 1010.2
20260502220955 57 333 0.0 0.9 0.00 0.00 0.00 45 1010.0
20260502220451 57 350 0.9 1.7 0.00 0.00 0.00 43 1010.2
20260502215948 57 282 0.9 0.9 0.00 0.00 0.00 43 1010.1
20260502215445 58 12 1.7 2.6 0.00 0.00 0.00 42 1010.1
20260502214942 57 340 0.0 0.9 0.00 0.00 0.00 43 1010.4
20260502214439 58 214 0.9 1.7 0.00 0.00 0.00 41 1010.2
20260502213936 58 253 1.7 4.3 0.00 0.00 0.00 40 1010.0
20260502213433 58 348 0.0 2.6 0.00 0.00 0.00 42 1010.2
20260502212931 58 343 0.0 1.7 0.00 0.00 0.00 42 1010.1
20260502212430 58 345 1.7 2.6 0.00 0.00 0.00 42 1010.1
20260502211927 58 321 2.6 2.6 0.00 0.00 0.00 41 1010.0
20260502211422 58 302 0.0 0.9 0.00 0.00 0.00 42 1009.9
20260502210920 58 337 0.9 0.9 0.00 0.00 0.00 45 1010.1
20260502210417 58 298 0.9 1.7 0.00 0.00 0.00 42 1009.9
20260502205914 58 271 2.6 2.6 0.00 0.00 0.00 44 1010.1
20260502205410 58 290 1.7 4.3 0.00 0.00 0.00 41 1010.0
20260502204908 59 340 0.9 0.9 0.00 0.00 0.00 45 1009.8
20260502204404 58 320 0.9 1.7 0.00 0.00 0.00 44 1009.8
20260502203902 59 315 2.6 4.3 0.00 0.00 0.00 44 1010.0
20260502203359 59 7 1.7 1.7 0.00 0.00 0.00 44 1009.9
20260502202855 58 346 0.9 1.7 0.00 0.00 0.00 44 1010.0
20260502202352 57 7 0.9 2.6 0.00 0.00 0.00 45 1010.2
20260502201850 58 301 0.9 1.7 0.00 0.00 0.00 45 1010.2
20260502201346 58 2 1.7 2.6 0.00 0.00 0.00 45 1010.1
20260502200842 58 1 2.6 2.6 0.00 0.00 0.00 45 1010.2
20260502200338 57 12 2.6 4.3 0.00 0.00 0.00 44 1010.2
20260502195837 58 313 1.7 1.7 0.00 0.00 0.00 45 1010.3
20260502195333 58 303 1.7 2.6 0.00 0.00 0.00 45 1010.3
20260502194830 58 358 0.9 2.6 0.00 0.00 0.00 44 1010.3
20260502194327 59 313 2.6 4.3 0.00 0.00 0.00 43 1010.3
20260502193822 59 332 0.9 2.6 0.00 0.00 0.00 43 1010.4
20260502193320 59 343 1.7 2.6 0.00 0.00 0.00 43 1010.5
20260502192815 60 325 1.7 5.2 0.00 0.00 0.00 41 1010.8